Vertical_Velocity
-4 -3 -2 -1 3 1 -4 -1 2 3 1 -4 -5 -6 -7 -6 -4 -1 -4 -3 -1 -2
0 5 3 1 -7 -4 -6 -9 -2 -2 -4 -2 -0 -2 -3 -3 -4 -1 -3 -2 -1 1
0 2 2 -1 -2 0 -6 3 -1 -4 -1 -3 -5 -2 -0 -2 1 -1 1 2 5 -1
-1 12 5 -1 -2 -1 -2 -3 -4 -5 -3 -4 0 0 -2 -1 1 3 5 1 0 1
-5 4 7 3 2 -2 -0 5 -1 0 1 -3 -2 -3 0 -0 0 -2 -3 -2 -3 -2
-6 -3 5 -0 3 -2 1 3 2 -0 -3 -2 -2 -1 4 -0 -1 1 -1 -2 0 0
-7 -0 6 5 1 4 3 4 3 3 1 -1 1 3 1 2 1 -1 3 3 -2 -1
-1 10 10 1 0 -1 3 2 -1 2 3 3 0 2 2 2 1 1 1 1 -1 -0
-7 -7 -16 -3 3 -0 0 -1 -1 1 4 -2 0 -0 0 1 -1 1 -5 1 4 -1
-10 1 -3 -5 -5 -3 -6 -0 -2 1 1 -3 -2 -2 0 3 0 -1 -0 -0 -1 1
-3 6 4 20 -6 -2 2 -0 3 3 -3 1 -3 -4 -5 -3 -3 -2 -3 -3 -4 -2
8 -1 3 11 1 -8 -4 -2 1 -1 -2 -1 0 -1 0 1 -0 1 1 0 -1 -3
2 3 7 7 0 4 -4 3 1 -3 -0 -2 -0 -2 0 -4 -0 -0 3 -1 -0 -1
-2 0 0 -2 3 4 3 -0 -1 2 -3 -2 -3 1 -1 -2 0 -0 2 -0 -0 -0
Height
5704 5695 5686 5676 5668 5657 5646 5639 5628 5618 5610 5599 5588 5578 5569 5559 5551 5541 5530 5523 5514 5507
5690 5679 5669 5659 5647 5636 5624 5613 5604 5594 5586 5573 5561 5551 5542 5533 5523 5514 5504 5496 5489 5482
5674 5662 5649 5636 5623 5612 5601 5591 5580 5569 5560 5549 5537 5527 5516 5507 5499 5490 5482 5476 5470 5464
5652 5640 5626 5613 5601 5590 5578 5566 5555 5543 5533 5524 5514 5503 5493 5484 5477 5471 5466 5459 5455 5451
5632 5622 5609 5596 5583 5569 5558 5546 5533 5521 5510 5499 5491 5483 5474 5466 5460 5454 5448 5443 5438 5434
5616 5604 5592 5578 5563 5548 5536 5523 5511 5498 5487 5479 5472 5465 5458 5451 5445 5439 5433 5428 5422 5417
5596 5585 5572 5559 5544 5530 5516 5503 5492 5481 5471 5464 5458 5451 5445 5438 5432 5426 5420 5413 5406 5400
5575 5565 5549 5534 5522 5508 5496 5483 5472 5465 5456 5450 5443 5437 5431 5425 5419 5412 5406 5398 5389 5381
5545 5532 5519 5509 5497 5487 5478 5467 5457 5449 5442 5434 5430 5424 5418 5412 5404 5397 5388 5381 5373 5366
5522 5511 5497 5484 5475 5467 5460 5452 5444 5436 5428 5422 5417 5412 5407 5399 5391 5382 5373 5366 5359 5354
5505 5494 5482 5475 5461 5456 5449 5440 5433 5426 5419 5414 5407 5401 5393 5386 5376 5367 5358 5351 5345 5339
5489 5476 5467 5460 5451 5441 5437 5430 5423 5417 5411 5406 5399 5391 5383 5375 5365 5356 5348 5339 5331 5324
5473 5460 5455 5445 5438 5432 5428 5424 5417 5410 5404 5397 5390 5382 5373 5363 5354 5347 5338 5329 5321 5313
5455 5446 5439 5431 5426 5423 5420 5416 5410 5404 5397 5389 5381 5372 5363 5354 5346 5338 5331 5323 5316 5309